, AK

(GMT )
Shemya

Weather History for PASY - October, 2013

Change the Weather History Date:

Friday, October 18, 2013

  Actual Average Record
Temperature  
Mean Temperature 40 °F -  
Max Temperature 45 °F 45 °F 52 °F (1996)
Min Temperature 35 °F 39 °F 30 °F (1970)
Degree Days  
Heating Degree Days 25    
Moisture  
Dew Point 33 °F    
Average Humidity 77    
Maximum Humidity 87    
Minimum Humidity 55    
Precipitation  
Precipitation 0.00 in - - ()
Sea Level Pressure  
Sea Level Pressure 29.46 in    
Wind  
Wind Speed 31 mph (NW)    
Max Wind Speed 40 mph    
Max Gust Speed 53 mph    
Visibility 10 miles    
Events Rain , Snow    
Averages and records for this station are not official NWS values.
T = Trace of Precipitation, MM = Missing Value Source: NWS Daily Summary

Daily Weather History Graph

Daily Weather History Graph

Search for Another Location

Airport or City:

Astronomy

Oct. 17, 2013 Rise Set
Actual Time 9:53 AM HDT 8:22 PM HDT
Civil Twilight 9:19 AM HDT 8:57 PM HDT
Nautical Twilight 8:39 AM HDT 9:37 PM HDT
Astronomical Twilight 7:59 AM HDT 10:16 PM HDT
Moon 8:15 PM HDT (10/18) 9:50 AM HDT (10/18)
Length of Visible Light 11h 38m
Length of Day
10h 28m
Full, 100% of the Moon is Illuminated
Oct 18
Full
Oct 18
Full
Oct 26
Last Quarter
Nov 3
New
Nov 9
First Quarter

Hourly Weather History & Observations

Time (HDT) Temp. Windchill Dew Point Humidity Pressure Visibility Wind Dir Wind Speed Gust Speed Precip Events Conditions
12:56 AM 43.0 °F 31.5 °F 39.0 °F 86% 29.13 in 8.0 mi NW 36.8 mph 52.9 mph N/A   Overcast
1:15 AM 42.8 °F 31.6 °F 39.2 °F 87% 29.15 in 10.0 mi NW 34.5 mph 43.7 mph N/A   Overcast
1:22 AM 42.8 °F 31.3 °F 37.4 °F 81% 29.16 in 10.0 mi NW 36.8 mph 46.0 mph N/A   Mostly Cloudy
1:36 AM 42.8 °F 30.8 °F 37.4 °F 81% 29.18 in 10.0 mi NW 40.3 mph 47.2 mph N/A   Overcast
1:56 AM 43.0 °F 31.7 °F 37.0 °F 80% 29.20 in 10.0 mi NW 35.7 mph 48.3 mph N/A   Overcast
2:06 AM 42.8 °F 31.4 °F 37.4 °F 81% 29.20 in 10.0 mi NW 35.7 mph 43.7 mph N/A   Mostly Cloudy
2:45 AM 42.8 °F 31.0 °F 37.4 °F 81% 29.24 in 10.0 mi NW 39.1 mph 46.0 mph N/A   Mostly Cloudy
2:56 AM 42.1 °F 30.6 °F 36.0 °F 79% 29.26 in 10.0 mi NW 34.5 mph 42.6 mph N/A   Mostly Cloudy
3:22 AM 42.8 °F 32.9 °F 37.4 °F 81% 29.27 in 10.0 mi NW 26.5 mph - N/A Rain Light Rain
3:56 AM 41.0 °F 29.0 °F 36.0 °F 82% 29.30 in 10.0 mi NW 35.7 mph 43.7 mph N/A   Mostly Cloudy
4:56 AM 39.9 °F 28.6 °F 36.0 °F 86% 29.34 in 10.0 mi NW 28.8 mph 46.0 mph N/A Rain Light Rain
5:06 AM 41.0 °F 29.7 °F 35.6 °F 81% 29.34 in 10.0 mi NW 31.1 mph 40.3 mph N/A   Mostly Cloudy
5:56 AM 41.0 °F 29.3 °F 35.1 °F 79% 29.37 in 10.0 mi NW 33.4 mph 39.1 mph N/A   Partly Cloudy
6:31 AM 41.0 °F 29.3 °F 35.6 °F 81% 29.38 in 10.0 mi NNW 33.4 mph 39.1 mph N/A   Mostly Cloudy
6:40 AM 39.2 °F 27.4 °F 35.6 °F 87% 29.39 in 10.0 mi NW 29.9 mph 39.1 mph N/A   Overcast
6:56 AM 41.0 °F 30.2 °F 36.0 °F 82% 29.39 in 10.0 mi NW 27.6 mph 34.5 mph N/A   Mostly Cloudy
7:56 AM 39.9 °F 27.8 °F 35.1 °F 83% 29.43 in 10.0 mi NW 33.4 mph 39.1 mph N/A   Mostly Cloudy
8:56 AM 41.0 °F 30.9 °F 32.0 °F 70% 29.45 in 10.0 mi NW 24.2 mph 32.2 mph N/A   Mostly Cloudy
9:56 AM 39.9 °F 28.4 °F 30.0 °F 68% 29.49 in 10.0 mi NNW 29.9 mph 35.7 mph N/A   Scattered Clouds
10:56 AM 39.9 °F 28.8 °F 28.0 °F 63% 29.52 in 10.0 mi NW 27.6 mph 36.8 mph N/A   Partly Cloudy
11:56 AM 39.9 °F 28.8 °F 25.0 °F 55% 29.54 in 10.0 mi NW 27.6 mph - N/A   Scattered Clouds
12:56 PM 41.0 °F 30.2 °F 26.1 °F 55% 29.56 in 10.0 mi WNW 27.6 mph 36.8 mph N/A   Mostly Cloudy
1:56 PM 42.1 °F 31.7 °F 28.9 °F 60% 29.57 in 10.0 mi NW 27.6 mph 34.5 mph N/A   Mostly Cloudy
2:56 PM 39.9 °F 28.4 °F 32.0 °F 73% 29.60 in 9.0 mi NW 29.9 mph 34.5 mph N/A Rain Light Rain
3:56 PM 39.9 °F 28.2 °F 34.0 °F 79% 29.60 in 10.0 mi NW 31.1 mph 34.5 mph N/A   Scattered Clouds
4:49 PM 37.4 °F 28.2 °F 32.0 °F 81% 29.61 in 10.0 mi WNW 16.1 mph 34.5 mph N/A Rain Light Rain
4:56 PM 41.0 °F 29.8 °F 34.0 °F 76% 29.61 in 10.0 mi WNW 29.9 mph 33.4 mph N/A   Overcast
5:56 PM 39.0 °F 29.6 °F 33.1 °F 79% 29.62 in 10.0 mi West 18.4 mph 27.6 mph N/A Rain Light Rain
6:56 PM 36.0 °F 23.2 °F 30.9 °F 82% 29.65 in 9.0 mi WNW 28.8 mph 34.5 mph N/A   Mostly Cloudy
7:03 PM 35.6 °F 24.2 °F 32.0 °F 87% 29.64 in 6.2 mi WNW 21.9 mph 34.5 mph N/A Snow Light Snow
7:15 PM 35.6 °F 25.2 °F 32.0 °F 87% 29.64 in 10.0 mi WNW 18.4 mph - N/A   Overcast
7:56 PM 36.0 °F 25.0 °F 30.9 °F 82% 29.65 in 10.0 mi WNW 20.7 mph - N/A   Mostly Cloudy
8:56 PM 35.1 °F 23.5 °F 28.9 °F 78% 29.66 in 10.0 mi NW 21.9 mph 32.2 mph N/A   Mostly Cloudy
9:16 PM 35.6 °F 24.2 °F 30.2 °F 81% 29.66 in 10.0 mi WNW 21.9 mph 25.3 mph N/A Rain Light Rain
9:30 PM 35.6 °F 26.2 °F 30.2 °F 81% 29.66 in 10.0 mi West 15.0 mph - N/A   Scattered Clouds
9:56 PM 36.0 °F 25.0 °F 30.0 °F 79% 29.66 in 10.0 mi WNW 20.7 mph 31.1 mph N/A   Mostly Cloudy
10:56 PM 35.1 °F 25.2 °F 30.9 °F 85% 29.68 in 10.0 mi WNW 16.1 mph - N/A   Scattered Clouds
11:56 PM 37.0 °F 26.4 °F 28.9 °F 73% 29.68 in 10.0 mi West 20.7 mph - N/A   Overcast